TimeCST,TemperatureF,Dew PointF,Humidity,Sea Level PressureIn,VisibilityMPH,Wind Direction,Wind SpeedMPH,Gust SpeedMPH,PrecipitationIn,Events,Conditions,WindDirDegrees,DateUTC
12:38 AM,37.4,32.0,81,29.90,6.0,NNW,6.9,-,0.01,Rain,Light Rain,340,2012-12-08 06:38:00
12:53 AM,37.0,32.0,82,29.92,6.0,NNW,9.2,-,0.02,Rain,Light Rain,340,2012-12-08 06:53:00
1:08 AM,35.6,32.0,87,29.90,5.0,North,6.9,-,0.00,Rain,Light Rain,350,2012-12-08 07:08:00
1:15 AM,35.6,32.0,87,29.89,5.0,North,9.2,-,0.01,Rain,Light Rain,360,2012-12-08 07:15:00
1:35 AM,35.6,32.0,87,29.89,6.0,North,9.2,-,0.02,Rain,Light Rain,360,2012-12-08 07:35:00
1:51 AM,35.6,32.0,87,29.88,6.0,North,8.1,-,0.02,Rain,Light Rain,360,2012-12-08 07:51:00
1:53 AM,36.0,32.0,86,29.91,6.0,North,8.1,-,0.02,Rain,Light Rain,360,2012-12-08 07:53:00
2:24 AM,35.6,33.8,93,29.89,6.0,North,8.1,-,0.01,Rain,Light Rain,350,2012-12-08 08:24:00
2:40 AM,35.6,33.8,93,29.90,6.0,North,9.2,-,0.01,,Overcast,350,2012-12-08 08:40:00
2:53 AM,36.0,32.0,86,29.92,5.0,North,10.4,-,0.02,Rain,Light Rain,350,2012-12-08 08:53:00
3:31 AM,33.8,32.0,93,29.90,3.0,NNW,6.9,-,0.01,Snow,Light Snow,340,2012-12-08 09:31:00
3:53 AM,35.1,32.0,89,29.93,4.0,North,6.9,-,0.02,,Overcast,350,2012-12-08 09:53:00
4:09 AM,35.6,32.0,87,29.90,5.0,North,8.1,-,0.00,Snow,Light Snow,350,2012-12-08 10:09:00
4:16 AM,35.6,32.0,87,29.90,4.0,North,8.1,-,0.00,Snow,Light Snow,350,2012-12-08 10:16:00
4:29 AM,35.6,32.0,87,29.90,5.0,North,9.2,-,0.00,,Overcast,350,2012-12-08 10:29:00
4:48 AM,35.6,32.0,87,29.90,5.0,North,8.1,-,0.01,,Overcast,360,2012-12-08 10:48:00
5:02 AM,35.6,32.0,87,29.91,5.0,North,8.1,-,0.00,Rain,Light Rain,350,2012-12-08 11:02:00
5:14 AM,35.6,32.0,87,29.91,6.0,NNW,6.9,-,0.00,,Overcast,340,2012-12-08 11:14:00
5:40 AM,35.6,32.0,87,29.91,5.0,North,6.9,-,0.00,,Overcast,350,2012-12-08 11:40:00
5:53 AM,35.1,32.0,89,29.94,5.0,North,6.9,-,0.00,,Overcast,350,2012-12-08 11:53:00
6:06 AM,35.6,32.0,87,29.92,6.0,North,5.8,-,N/A,,Overcast,360,2012-12-08 12:06:00
6:35 AM,35.6,32.0,87,29.93,6.0,NNW,4.6,-,N/A,,Overcast,340,2012-12-08 12:35:00
6:53 AM,35.1,32.0,89,29.96,2.5,North,4.6,-,N/A,,Overcast,350,2012-12-08 12:53:00
7:53 AM,35.1,32.0,89,29.98,2.5,North,8.1,-,N/A,,Overcast,350,2012-12-08 13:53:00
8:00 AM,35.6,33.8,93,29.96,3.0,North,8.1,-,N/A,,Overcast,350,2012-12-08 14:00:00
8:18 AM,35.6,33.8,93,29.96,3.0,North,6.9,-,N/A,,Overcast,360,2012-12-08 14:18:00
8:25 AM,35.6,33.8,93,29.97,3.0,North,8.1,-,N/A,,Overcast,360,2012-12-08 14:25:00
8:53 AM,36.0,33.1,89,29.99,3.0,North,8.1,-,N/A,,Overcast,360,2012-12-08 14:53:00
9:00 AM,35.6,33.8,93,29.98,3.0,North,8.1,-,N/A,,Overcast,350,2012-12-08 15:00:00
9:53 AM,37.0,34.0,89,30.02,3.0,North,9.2,-,0.00,Rain,Light Rain,360,2012-12-08 15:53:00
10:00 AM,35.6,33.8,93,30.00,2.0,North,10.4,-,0.01,Rain,Light Rain,360,2012-12-08 16:00:00
10:20 AM,37.4,33.8,87,30.01,4.0,North,9.2,-,0.01,,Overcast,360,2012-12-08 16:20:00
10:53 AM,37.0,34.0,89,30.04,3.0,North,8.1,-,0.02,Rain,Light Rain,10,2012-12-08 16:53:00
11:12 AM,35.6,33.8,93,30.02,1.8,North,10.4,-,0.01,Snow,Light Snow,10,2012-12-08 17:12:00
11:53 AM,37.0,33.1,86,30.03,5.0,North,8.1,-,0.02,,Overcast,10,2012-12-08 17:53:00
12:53 PM,37.9,34.0,86,30.04,9.0,North,11.5,-,N/A,,Overcast,10,2012-12-08 18:53:00
1:53 PM,36.0,33.1,89,30.05,3.0,North,6.9,-,0.01,Snow,Light Snow,10,2012-12-08 19:53:00
2:53 PM,37.0,33.1,86,30.07,10.0,NE,9.2,-,0.00,,Overcast,40,2012-12-08 20:53:00
3:33 PM,35.6,32.0,87,30.05,2.0,NE,8.1,-,0.01,Snow,Light Snow,50,2012-12-08 21:33:00
3:46 PM,35.6,32.0,87,30.06,5.0,NNE,6.9,-,0.02,,Overcast,20,2012-12-08 21:46:00
3:53 PM,36.0,32.0,86,30.09,9.0,NNE,6.9,-,0.02,,Overcast,30,2012-12-08 21:53:00
4:53 PM,35.1,32.0,89,30.10,10.0,NNE,9.2,-,0.00,,Mostly Cloudy,30,2012-12-08 22:53:00
5:14 PM,35.6,32.0,87,30.08,10.0,NNE,8.1,-,N/A,,Overcast,20,2012-12-08 23:14:00
5:53 PM,35.1,32.0,89,30.12,10.0,NNE,6.9,-,N/A,,Mostly Cloudy,20,2012-12-08 23:53:00
6:36 PM,33.8,32.0,93,30.09,10.0,NNE,5.8,-,N/A,,Mostly Cloudy,20,2012-12-09 00:36:00
6:49 PM,35.6,32.0,87,30.08,10.0,NNE,4.6,-,N/A,,Mostly Cloudy,30,2012-12-09 00:49:00
6:53 PM,35.1,32.0,89,30.11,10.0,NNE,5.8,-,N/A,,Mostly Cloudy,20,2012-12-09 00:53:00
7:11 PM,35.6,32.0,87,30.09,6.0,NE,9.2,-,0.00,Snow,Light Snow,50,2012-12-09 01:11:00
7:53 PM,36.0,32.0,86,30.12,10.0,NE,4.6,-,0.00,,Overcast,40,2012-12-09 01:53:00
8:25 PM,37.4,32.0,81,30.09,5.0,East,10.4,-,0.00,Rain,Light Rain,90,2012-12-09 02:25:00
8:53 PM,37.0,32.0,82,30.12,10.0,ENE,9.2,-,0.01,Rain,Light Rain,70,2012-12-09 02:53:00
9:28 PM,37.4,30.2,75,30.11,10.0,ESE,9.2,-,0.00,,Overcast,110,2012-12-09 03:28:00
9:37 PM,37.4,30.2,75,30.10,10.0,ESE,11.5,-,0.00,,Overcast,110,2012-12-09 03:37:00
9:53 PM,37.9,30.0,73,30.13,10.0,ESE,11.5,-,0.00,,Overcast,120,2012-12-09 03:53:00
10:53 PM,37.9,30.0,73,30.13,10.0,ESE,15.0,-,N/A,,Overcast,110,2012-12-09 04:53:00
11:53 PM,37.0,28.9,73,30.12,10.0,East,12.7,-,N/A,,Partly Cloudy,100,2012-12-09 05:53:00